Погода в Адамовом

Россия / Республика Бурятия     53°28′51″N   109°18′08″E
темп.,
°C
ветер,
м/с
пор.,
м/с
влажн.,
%
обл.,
%
осадки,
мм/ч
давл.,
гПа
погр.,
м
22 апреля, чт
чт2223:00−8сз128980 0.0 102534
02:00−10ссв119380 0.0 102719
05:00−11св11935 0.0 103016
08:00−5з11679 0.0 1030264
11:00+1сз2245100 0.0 10301283
14:000сз3350100 0.0 10311089
17:00−1сз2445100 0.0 1032779
20:00−5ссз1184100 0.0 103625
23 апреля, пт
пт2323:00−7ссв1190100 0.0 103823
02:00−9всв11926 0.0 104114
05:00−9всв2189100 0.0 104319
08:00−2всв135099 0.0 1042387
11:00+3ссз1238100 0.0 10421048
14:00+4зсз3243100 0.0 10401355
17:00+2зсз2253100 0.0 1040694
20:00−4сз1180100 0.0 104216
24 апреля, сб
сб2423:00−5св1185100 0.0 104318
02:00−6всв1187100 0.0 104214
05:00−5всв2380100 0.0 104143
08:00−1всв3557100 0.0 1039300
11:00+5всв3635100 0.0 1035608
14:00+9св352897 0.0 10301007
17:00+7св4843100 0.0 1027557
20:00+4всв3948100 0.0 1025255
25 апреля, вс
вс2523:00+3всв3551100 0.0 1023123
02:00+2всв4872100 0.6 1021242
05:00+1в3895100 1.4 1020308
08:00+1всв1299100 3.1 1020124
11:00+1юз3599100 2.0 1020209
14:00+1зюз2499100 4.3 1020172
17:00+2з2495100 1.4 1018349
20:00−1сз1197100 1.5 101824
26 апреля, пн
пн2623:00−5з1199100 0.0 101929
02:00−4зюз239764 0.0 1018142
05:00−6зюз1210082 0.0 101765
08:00−1зюз238244 0.0 1016458
11:00+4зсз486184 0.1 10141636
14:00+5зсз485494 0.1 10131867
17:00+4зсз3963100 0.1 10141477
20:000з259084 0.4 1016148